Location: Cz?stochówka
(50.8142°N, 19.0915°E)
Time: 16:00:48
(UTC+00:00)

Cosmos 44 - Pass Details

Date: 13 January 2026
Orbit: 570 x 780 km, 65.1° (Epoch: 18 February)

Event Time Altitude Azimuth Distance (km) Brightness Sun altitude
Exits shadow 04:32:07 23° 331° (NNW) 1,577 4.8 -19.6°
Maximum altitude 04:35:20 58° 44° (NE) 900 4.0 -19.1°
Drops below altitude 10° 04:40:39 10° 123° (ESE) 2,331 7.1 -18.3°
Sets 04:43:06 0° 127° (SE) 3,255 7.9 -17.9°
